Location: Elliott Island road
(38.3470°N, 75.9376°W)
Time: 15:45:31
(UTC-05:00)

Tiangong 1 - Visible Passes

Search period start: 20 January 2018 00:00
Search period end: 30 January 2018 00:00
Orbit: 262 x 287 km, 42.8° (Epoch: 20 January)

Date Brightness Start Highest point End Pass type
(mag) Time Alt. Az. Time Alt. Az. Time Alt. Az.
20 Jan 1.6 17:58:19 10° WNW 18:00:34 29° N 18:02:01 17° ENE visible
21 Jan 1.2 17:57:49 10° WNW 18:00:10 37° NNE 18:01:47 16° ENE visible
22 Jan 0.6 17:57:09 10° WNW 17:59:36 53° NNE 18:01:34 14° E visible
23 Jan 0.3 17:56:23 10° WNW 17:58:51 90° ENE 18:01:18 10° ESE visible
24 Jan 1.4 17:55:32 10° WNW 17:57:56 48° SSW 18:00:18 10° SE visible
25 Jan 2.7 17:54:42 10° W 17:56:50 25° SSW 17:58:56 10° SSE visible
26 Jan 3.6 17:54:05 10° WSW 17:55:33 14° SW 17:57:00 10° S visible
